Satellite: SO-50
Catalog number: 27607
Epoch time:      12207.34037483
Element set:    0822
Inclination:      064.5567 deg
RA of node:       178.8329 deg
Eccentricity:    0.0080934
Arg of perigee:   241.0030 deg
Mean anomaly:     118.2944 deg
Mean motion:   14.72438309 rev/day
Decay rate:       1.16e-06 rev/day^2
Epoch rev:           51558
Checksum:              300

Satellite: CO-55
Catalog number: 27844
Epoch time:      12207.57726648
Element set:    0426
Inclination:      098.7023 deg
RA of node:       215.3975 deg
Eccentricity:    0.0010510
Arg of perigee:   108.9560 deg
Mean anomaly:     251.2742 deg
Mean motion:   14.21045972 rev/day
Decay rate:        9.9e-07 rev/day^2
Epoch rev:           47034
Checksum:              306

Satellite: CO-57
Catalog number: 27848
Epoch time:      12207.58765737
Element set:    0376
Inclination:      098.7118 deg
RA of node:       214.7591 deg
Eccentricity:    0.0010494
Arg of perigee:   113.0470 deg
Mean anomaly:     247.1797 deg
Mean motion:   14.20795256 rev/day
Decay rate:       1.09e-06 rev/day^2
Epoch rev:           47028
Checksum:              333

Satellite: AO-51
Catalog number: 28375
Epoch time:      12207.47953152
Element set:    0326
Inclination:      098.1509 deg
RA of node:       170.9804 deg
Eccentricity:    0.0083125
Arg of perigee:   285.7675 deg
Mean anomaly:     073.4357 deg
Mean motion:   14.40969487 rev/day
Decay rate:       1.70e-06 rev/day^2
Epoch rev:           42428
Checksum:              329

Satellite: CP3
Catalog number: 31129
Epoch time:      12207.57469515
Element set:    0222
Inclination:      097.8822 deg
RA of node:       213.0921 deg
Eccentricity:    0.0101188
Arg of perigee:   004.5589 deg
Mean anomaly:     355.6495 deg
Mean motion:   14.53135615 rev/day
Decay rate:       3.85e-06 rev/day^2
Epoch rev:           27955
Checksum:              307

Satellite: CO-65
Catalog number: 32785
Epoch time:      12207.83764403
Element set:     369
Inclination:      097.7982 deg
RA of node:       267.9726 deg
Eccentricity:    0.0013341
Arg of perigee:   297.6242 deg
Mean anomaly:     062.3622 deg
Mean motion:   14.83067697 rev/day
Decay rate:       1.68e-06 rev/day^2
Epoch rev:           22949
Checksum:              349

Satellite: PRISM
Catalog number: 33493
Epoch time:      12208.90778103
Element set:     917
Inclination:      098.1761 deg
RA of node:       350.4313 deg
Eccentricity:    0.0019122
Arg of perigee:   164.4684 deg
Mean anomaly:     195.7136 deg
Mean motion:   14.84053337 rev/day
Decay rate:      1.152e-05 rev/day^2
Epoch rev:           18964
Checksum:              301

Satellite: SOHLA-1
Catalog number: 33496
Epoch time:      12207.97171887
Element set:    0791
Inclination:      098.1083 deg
RA of node:       319.4580 deg
Eccentricity:    0.0005511
Arg of perigee:   279.9364 deg
Mean anomaly:     080.1222 deg
Mean motion:   14.70000862 rev/day
Decay rate:       1.65e-06 rev/day^2
Epoch rev:           18794
Checksum:              308

Satellite: SO-67
Catalog number: 35870
Epoch time:      12208.90330547
Element set:     175
Inclination:      097.2299 deg
RA of node:       243.2557 deg
Eccentricity:    0.0003537
Arg of perigee:   057.5651 deg
Mean anomaly:     024.8417 deg
Mean motion:   15.24096472 rev/day
Decay rate:      1.967e-05 rev/day^2
Epoch rev:           15866
Checksum:              330

Satellite: TISAT-1
Catalog number: 36799
Epoch time:      12208.77040684
Element set:     193
Inclination:      098.0601 deg
RA of node:       285.3940 deg
Eccentricity:    0.0015916
Arg of perigee:   048.5404 deg
Mean anomaly:     311.7169 deg
Mean motion:   14.82073416 rev/day
Decay rate:       7.50e-06 rev/day^2
Epoch rev:           11035
Checksum:              295

Satellite: STUDSAT
Catalog number: 36801
Epoch time:      12207.89686122
Element set:    0451
Inclination:      098.0675 deg
RA of node:       285.4049 deg
Eccentricity:    0.0013359
Arg of perigee:   037.9728 deg
Mean anomaly:     322.2395 deg
Mean motion:   14.84626445 rev/day
Decay rate:      1.928e-05 rev/day^2
Epoch rev:           11026
Checksum:              314

Satellite: FO-69
Catalog number: 37227
Epoch time:      12179.46825757
Element set:    0219
Inclination:      071.9703 deg
RA of node:       289.2712 deg
Eccentricity:    0.0018108
Arg of perigee:   298.3339 deg
Mean anomaly:     061.6016 deg
Mean motion:   14.77092260 rev/day
Decay rate:       1.66e-06 rev/day^2
Epoch rev:           03761
Checksum:              323

Satellite: FO-70
Catalog number: 37380
Epoch time:      12179.47554455
Element set:    0223
Inclination:      071.9743 deg
RA of node:       289.8278 deg
Eccentricity:    0.0018623
Arg of perigee:   295.0880 deg
Mean anomaly:     064.8372 deg
Mean motion:   14.76843679 rev/day
Decay rate:       2.08e-06 rev/day^2
Epoch rev:           03750
Checksum:              341

Satellite: ALMASAT-1
Catalog number: 38078
Epoch time:      12208.56629556
Element set:     419
Inclination:      069.4856 deg
RA of node:       227.9830 deg
Eccentricity:    0.0754158
Arg of perigee:   199.4978 deg
Mean anomaly:     157.5844 deg
Mean motion:   14.10422492 rev/day
Decay rate:     1.1891e-04 rev/day^2
Epoch rev:            2310
Checksum:              341

